Temp
61 61 61 62 62 62 62 63 63 62 61 61 61 62 61 62 62 60 56 67 67 67 68 73 73 71 72 71 72 72 66 62 65 64 68 70 70 72 74 73 72 74 75 73 74
60 60 61 61 61 61 62 62 62 62 61 60 60 60 61 62 60 54 65 68 69 66 65 64 65 65 68 68 69 69 64 65 71 73 71 71 72 73 72 71 71 71 70 70 67
59 60 60 60 60 61 61 61 61 62 62 60 59 60 60 63 56 57 65 67 68 65 61 64 66 62 61 66 67 65 64 69 69 71 71 71 70 74 73 69 76 74 73 65 65
59 59 59 59 60 60 61 61 61 61 61 61 59 59 60 61 45 60 64 65 67 66 58 61 62 61 57 60 66 61 66 66 67 67 67 67 72 70 74 75 77 78 77 67 64
58 58 58 59 59 60 60 60 61 61 61 61 58 56 57 50 54 66 64 64 64 63 55 57 58 60 58 62 63 62 64 65 66 65 67 67 67 70 70 75 73 75 71 68 66
58 57 58 58 58 59 60 60 60 60 61 61 59 58 52 45 63 66 65 61 60 63 55 55 60 62 59 59 61 64 63 63 64 65 65 65 65 66 73 73 71 71 71 70 70
57 57 57 58 58 59 59 59 60 60 60 61 59 59 51 51 65 67 64 64 60 59 54 56 62 59 62 58 63 61 59 61 63 64 64 66 61 63 69 70 71 71 72 71 71
57 57 57 57 58 58 59 59 60 60 60 60 58 58 49 60 65 64 65 63 63 60 57 59 63 60 59 62 60 57 59 54 61 62 62 63 60 67 67 68 71 72 73 71 72
57 56 57 57 57 58 58 59 59 60 60 59 56 54 47 60 57 63 64 60 62 63 62 59 58 57 58 55 52 53 50 52 55 60 60 62 61 63 64 66 69 70 72 71 72
56 56 57 57 57 58 58 58 59 60 60 59 57 49 54 49 56 59 64 62 59 59 57 55 50 49 53 52 45 47 49 51 55 56 55 57 60 61 63 63 68 71 71 70 70
56 56 56 57 57 58 56 57 51 51 52 46 46 46 52 59 60 57 62 60 58 57 48 52 45 38 50 52 52 52 50 50 50 52 53 56 58 62 63 61 64 67 69 70 70
56 56 56 56 57 56 56 48 45 47 40 51 51 50 54 57 49 55 62 54 51 47 49 45 42 49 49 51 51 50 47 47 47 50 51 51 54 61 60 62 65 67 68 70 71
56 56 56 56 56 54 50 48 52 51 40 46 50 49 50 54 48 50 57 53 49 46 47 44 47 51 49 49 48 48 47 46 46 48 49 48 52 56 59 59 61 63 66 68 68
56 55 55 56 53 50 49 52 53 53 36 40 45 48 52 52 46 56 56 53 49 45 47 46 50 48 45 45 50 43 51 50 47 46 44 47 45 51 54 55 56 62 64 66 67
55 55 55 54 51 49 50 52 53 50 25 42 44 57 52 47 49 49 56 53 46 46 46 43 45 44 43 45 51 45 50 48 46 45 44 45 45 54 49 54 58 58 59 61 62
55 55 54 52 50 51 51 51 50 33 23 35 43 40 43 46 46 49 49 55 53 47 47 46 51 49 48 49 51 51 48 47 45 44 35 43 43 50 52 54 54 54 56 54 55
55 54 52 51 47 51 50 48 32 26 34 32 33 38 39 37 43 44 41 40 41 36 38 43 44 48 50 45 49 49 44 32 31 32 34 39 38 48 53 56 54 55 56 55 54
54 52 49 50 51 50 48 38 26 21 28 39 39 39 35 36 38 40 39 35 41 40 39 36 33 44 49 47 44 45 45 34 26 29 34 38 36 47 54 54 53 53 54 54 54
52 48 47 48 50 49 43 28 27 26 35 33 38 33 32 37 36 36 38 38 42 42 35 34 36 46 47 49 49 42 40 47 33 28 29 39 45 50 55 52 51 50 51 53 55
46 45 44 48 49 46 35 29 28 34 37 36 30 36 30 33 37 36 34 36 36 45 45 40 33 43 45 49 49 46 48 32 33 25 25 36 37 43 50 51 52 53 51 53 53
44 39 45 48 48 39 30 28 28 37 38 34 27 31 35 34 33 34 33 36 38 37 44 41 37 37 44 41 41 42 40 41 39 35 30 29 39 52 51 50 50 52 52 53 54
39 32 46 48 34 27 27 24 31 35 38 37 37 33 32 35 35 33 31 35 41 40 34 37 35 31 37 43 45 46 43 43 34 29 35 32 39 56 52 50 50 52 53 54 54
35 36 47 46 28 28 27 27 29 33 36 36 35 37 38 35 31 35 36 42 43 40 35 37 32 29 30 36 42 39 42 44 42 38 31 30 39 51 52 52 51 51 53 54 55
35 30 36 39 34 31 27 27 28 34 34 36 36 39 36 33 36 33 36 40 43 43 42 42 33 30 28 30 34 32 37 40 41 32 35 36 41 49 52 51 55 55 54 54 54
35 32 33 29 31 32 34 31 27 28 31 32 35 36 36 31 33 33 37 40 41 42 42 41 30 32 36 37 36 36 35 36 34 39 32 41 41 47 51 51 54 57 53 51 52
33 32 33 31 35 32 34 28 29 30 32 30 29 36 37 34 36 33 36 38 37 41 39 39 29 30 27 35 34 30 37 38 39 40 40 41 40 52 54 55 53 53 51 51 54
40 40 38 34 32 30 30 32 32 35 37 37 35 33 33 37 42 43 43 42 41 38 37 34 29 26 26 29 29 26 34 38 40 43 43 38 46 52 50 50 51 53 53 52 54
MSLP
1023.92 1023.66 1023.31 1023.06 1022.83 1022.54 1022.10 1021.62 1021.35 1020.95 1020.67 1020.43 1020.04 1019.58 1018.96 1019.28 1019.08 1018.80 1018.02 1017.06 1016.88 1016.91 1016.44 1015.75 1015.44 1015.45 1014.84 1014.04 1013.61 1013.17 1011.86 1010.77 1010.50 1010.70 1010.64 1011.73 1011.75 1012.26 1012.49 1012.42 1012.92 1013.25 1013.38 1014.18 1015.07
1024.01 1023.69 1023.28 1022.96 1022.79 1022.47 1022.06 1021.60 1021.25 1020.86 1020.59 1020.24 1019.90 1019.32 1019.20 1019.04 1018.70 1018.39 1018.16 1017.14 1016.70 1016.95 1016.70 1016.01 1015.63 1015.62 1014.44 1013.90 1013.42 1012.73 1011.68 1010.94 1010.83 1010.71 1010.70 1011.48 1011.60 1011.90 1012.12 1012.33 1012.58 1013.39 1014.24 1014.83 1015.69
1024.11 1023.87 1023.51 1023.15 1022.69 1022.40 1021.99 1021.56 1021.18 1020.70 1020.24 1019.90 1019.56 1019.04 1018.62 1018.43 1018.32 1017.22 1017.71 1017.23 1016.56 1016.81 1016.74 1016.80 1016.05 1015.76 1014.86 1014.22 1013.28 1012.73 1011.75 1011.47 1011.49 1011.51 1011.32 1011.48 1011.81 1011.88 1011.64 1011.77 1011.60 1012.13 1013.49 1015.02 1015.55
1024.02 1023.86 1023.53 1023.19 1022.60 1022.33 1021.86 1021.46 1021.07 1020.66 1020.13 1019.56 1019.15 1018.78 1018.33 1018.37 1017.99 1017.35 1017.29 1017.81 1016.87 1016.69 1016.89 1016.93 1016.49 1015.80 1015.50 1014.34 1013.32 1012.83 1012.31 1012.17 1012.13 1012.30 1012.06 1011.76 1011.83 1011.69 1011.58 1011.25 1011.75 1012.06 1012.92 1014.57 1015.24
1024.31 1023.92 1023.58 1023.30 1022.73 1022.18 1021.91 1021.36 1020.93 1020.50 1019.99 1019.46 1019.11 1018.74 1018.90 1018.69 1017.88 1017.86 1018.00 1017.27 1017.10 1017.50 1017.54 1017.47 1017.03 1016.34 1015.41 1014.66 1013.72 1012.97 1012.52 1012.60 1012.67 1012.85 1012.56 1012.25 1012.00 1011.78 1011.54 1011.83 1012.22 1012.56 1013.23 1014.18 1014.97
1024.33 1023.98 1023.66 1023.33 1022.83 1022.18 1021.84 1021.21 1020.75 1020.27 1020.01 1019.47 1019.05 1018.96 1018.86 1018.54 1017.77 1017.55 1017.48 1018.13 1017.98 1017.53 1017.79 1017.62 1017.10 1016.60 1015.87 1014.64 1013.83 1013.14 1012.97 1012.94 1013.13 1013.10 1012.93 1012.52 1012.34 1012.39 1011.65 1012.07 1012.36 1012.86 1013.12 1013.80 1014.38
1024.15 1024.02 1023.68 1023.30 1022.88 1022.12 1021.62 1021.03 1020.57 1020.16 1019.91 1019.45 1019.31 1019.10 1018.69 1018.07 1017.59 1017.46 1017.44 1017.33 1017.99 1018.05 1017.80 1017.98 1017.54 1017.03 1015.97 1014.56 1014.14 1013.66 1013.31 1013.32 1013.38 1013.35 1013.12 1012.97 1012.59 1011.91 1012.18 1012.31 1012.33 1012.59 1013.05 1013.52 1013.93
1024.04 1023.92 1023.49 1023.22 1022.85 1022.21 1021.25 1020.76 1020.21 1019.83 1019.49 1019.29 1019.26 1018.92 1018.40 1017.92 1017.69 1017.62 1017.31 1017.20 1017.14 1017.95 1018.27 1018.19 1017.75 1017.04 1016.14 1015.12 1014.50 1013.93 1013.64 1013.36 1013.46 1013.63 1013.54 1013.37 1011.98 1011.75 1012.24 1012.42 1012.17 1012.33 1012.71 1013.22 1013.60
1024.00 1023.75 1023.46 1023.00 1022.73 1022.14 1021.15 1020.39 1019.87 1019.52 1019.23 1019.18 1019.23 1018.62 1018.34 1018.06 1017.88 1017.58 1017.48 1017.19 1017.32 1017.72 1017.75 1018.05 1018.02 1017.13 1016.18 1015.14 1014.67 1014.45 1013.60 1013.65 1013.75 1013.99 1013.82 1013.51 1012.35 1012.32 1012.69 1012.54 1012.34 1012.35 1012.43 1012.85 1013.15
1023.87 1023.71 1023.40 1022.80 1022.50 1021.99 1020.85 1020.11 1019.70 1019.43 1019.28 1019.09 1019.15 1019.06 1018.40 1018.47 1018.12 1017.78 1017.30 1017.21 1017.42 1017.27 1017.58 1017.80 1018.25 1017.62 1016.47 1015.55 1014.24 1014.28 1014.20 1014.31 1014.01 1014.44 1014.38 1013.82 1012.84 1012.80 1012.90 1012.90 1012.42 1012.31 1012.51 1012.61 1012.90
1023.70 1023.63 1023.41 1022.96 1022.32 1021.88 1020.96 1020.14 1020.43 1020.00 1019.96 1020.17 1020.04 1019.45 1018.71 1018.41 1017.93 1017.49 1017.24 1017.00 1017.24 1017.01 1017.25 1017.55 1017.80 1017.63 1016.43 1016.26 1015.64 1014.90 1014.69 1014.74 1015.18 1015.21 1014.84 1014.10 1013.33 1012.88 1013.06 1013.06 1012.70 1012.41 1012.38 1012.52 1012.73
1023.73 1023.54 1023.28 1022.97 1022.43 1022.08 1021.64 1021.74 1022.75 1022.93 1021.57 1020.17 1019.95 1019.58 1019.08 1018.78 1018.08 1017.65 1017.41 1017.18 1017.04 1016.78 1017.18 1017.44 1016.79 1017.28 1017.61 1017.09 1016.30 1015.88 1015.52 1015.70 1016.10 1015.92 1015.47 1014.80 1013.56 1013.08 1013.20 1012.85 1012.62 1012.45 1012.41 1012.40 1012.68
1023.64 1023.40 1023.15 1022.80 1022.39 1022.28 1022.72 1023.08 1023.09 1022.87 1022.22 1020.60 1020.02 1019.50 1019.15 1019.16 1018.38 1018.09 1017.69 1017.37 1017.18 1017.39 1017.71 1017.33 1017.54 1017.57 1017.70 1017.44 1016.78 1016.45 1016.27 1016.37 1016.55 1016.46 1016.18 1015.50 1013.93 1013.05 1012.91 1013.01 1012.82 1012.72 1012.59 1012.64 1012.86
1023.59 1023.35 1023.08 1022.74 1022.72 1022.83 1022.69 1023.06 1022.83 1022.59 1021.82 1021.10 1020.05 1019.81 1019.47 1019.21 1018.71 1018.49 1018.27 1017.97 1017.73 1017.72 1017.91 1017.78 1017.74 1017.59 1017.59 1017.21 1016.89 1016.71 1016.74 1016.75 1016.88 1016.85 1016.30 1016.20 1014.01 1013.01 1013.00 1012.95 1012.83 1012.50 1012.60 1012.73 1013.02
1023.36 1023.37 1023.22 1022.85 1023.15 1022.95 1023.17 1022.85 1022.71 1022.52 1022.06 1021.48 1020.39 1019.89 1019.54 1019.50 1019.29 1018.94 1018.74 1018.12 1017.90 1017.89 1018.23 1018.27 1018.06 1017.92 1017.55 1017.13 1016.83 1017.44 1017.51 1017.64 1017.56 1017.27 1017.02 1016.59 1015.63 1013.03 1013.43 1013.02 1012.67 1012.82 1013.06 1013.29 1013.53
1023.32 1023.27 1023.28 1023.24 1023.40 1023.38 1023.19 1022.81 1022.66 1022.71 1022.62 1021.87 1021.12 1020.66 1020.08 1019.84 1019.56 1019.26 1019.16 1018.69 1018.56 1018.36 1018.36 1018.35 1018.21 1017.96 1017.77 1017.52 1017.11 1017.29 1018.17 1018.36 1018.12 1017.80 1017.26 1016.71 1016.16 1013.34 1013.46 1013.35 1013.35 1013.65 1013.89 1014.17 1014.32
1023.32 1023.27 1023.41 1023.55 1023.58 1023.36 1022.97 1022.66 1022.94 1023.04 1023.80 1022.89 1022.20 1021.66 1021.02 1020.78 1020.05 1019.77 1019.89 1019.61 1019.03 1019.05 1018.92 1018.89 1018.73 1018.53 1018.10 1017.90 1017.74 1017.07 1018.45 1018.90 1018.91 1018.50 1017.51 1017.53 1016.79 1014.41 1013.95 1013.90 1014.22 1014.23 1014.43 1014.74 1015.10
1023.48 1023.48 1023.72 1023.96 1023.74 1023.31 1022.97 1023.14 1023.66 1024.71 1023.92 1023.31 1022.72 1022.22 1021.68 1021.56 1021.04 1020.51 1020.46 1020.21 1020.12 1019.83 1019.28 1018.96 1018.97 1018.36 1017.97 1017.77 1017.61 1017.89 1018.24 1018.55 1018.70 1018.90 1018.36 1017.96 1016.13 1014.25 1014.27 1014.37 1014.60 1014.86 1014.85 1014.94 1015.23
1023.51 1023.93 1023.88 1023.99 1023.82 1023.41 1023.45 1024.12 1024.83 1025.10 1024.43 1023.82 1023.08 1022.57 1022.30 1022.01 1021.87 1021.38 1020.83 1020.60 1020.22 1020.22 1019.84 1019.42 1019.06 1018.75 1018.40 1018.08 1018.03 1018.23 1018.17 1018.86 1019.96 1020.66 1019.57 1017.48 1016.06 1015.15 1013.91 1014.36 1014.75 1014.70 1014.92 1015.22 1015.49
1023.78 1024.10 1024.18 1024.23 1023.90 1023.63 1024.13 1025.30 1025.76 1025.39 1024.88 1024.36 1023.56 1023.10 1022.69 1022.32 1021.87 1021.63 1021.61 1021.79 1021.19 1020.68 1020.45 1020.13 1019.68 1019.28 1018.74 1018.39 1018.28 1017.99 1018.60 1019.86 1020.44 1019.87 1018.92 1017.13 1016.28 1014.76 1014.12 1014.61 1014.99 1014.86 1015.04 1015.13 1015.57
1024.02 1024.37 1024.35 1024.30 1024.03 1024.20 1025.22 1026.18 1026.26 1025.66 1025.27 1024.62 1024.28 1023.73 1023.08 1022.87 1022.60 1022.36 1022.50 1022.44 1022.19 1021.64 1021.06 1020.86 1020.62 1020.04 1019.19 1018.79 1018.36 1018.47 1018.26 1018.85 1019.46 1019.72 1018.70 1017.23 1015.24 1014.41 1014.28 1014.86 1015.14 1015.09 1015.11 1015.42 1015.70
1024.25 1024.68 1024.54 1024.30 1024.93 1025.98 1026.29 1026.78 1026.74 1025.78 1025.26 1024.72 1024.34 1024.08 1023.59 1023.19 1022.82 1022.81 1022.86 1022.76 1022.48 1022.03 1021.76 1021.84 1021.29 1020.55 1019.83 1019.61 1019.20 1018.49 1018.70 1018.74 1019.20 1019.75 1019.19 1018.01 1015.23 1014.22 1014.43 1014.94 1015.10 1014.95 1015.10 1015.50 1015.96
1024.34 1024.92 1024.53 1024.55 1025.36 1026.11 1026.85 1027.12 1027.00 1026.10 1025.44 1025.01 1024.48 1024.19 1023.83 1023.60 1023.54 1023.21 1023.09 1022.86 1022.54 1022.53 1022.46 1022.34 1021.77 1021.08 1020.81 1020.65 1020.06 1019.80 1019.71 1019.63 1019.85 1019.94 1018.72 1017.85 1015.19 1014.87 1014.84 1014.80 1014.98 1015.18 1015.41 1015.82 1015.99
1024.36 1024.96 1025.01 1025.04 1025.65 1025.78 1026.42 1026.77 1026.65 1026.29 1025.94 1025.39 1024.74 1024.34 1024.02 1023.75 1023.82 1023.63 1023.26 1022.89 1022.78 1022.63 1022.44 1022.59 1022.60 1022.23 1021.72 1021.45 1021.32 1020.72 1020.33 1020.13 1019.83 1019.43 1018.46 1016.67 1015.55 1015.09 1014.40 1014.58 1014.66 1015.11 1015.49 1015.63 1015.84
1024.06 1024.58 1024.66 1025.02 1025.45 1025.54 1025.70 1026.11 1026.19 1026.11 1026.07 1025.75 1024.92 1024.36 1023.98 1023.82 1023.57 1023.55 1023.38 1023.08 1023.00 1022.81 1022.76 1022.76 1022.92 1022.87 1022.27 1021.98 1021.84 1021.17 1020.71 1020.43 1019.94 1019.24 1018.56 1016.21 1015.65 1015.24 1015.10 1015.02 1014.79 1014.84 1015.21 1015.42 1015.45
1023.79 1024.32 1024.93 1024.81 1024.80 1025.39 1025.45 1025.80 1025.39 1025.54 1025.52 1025.32 1025.20 1024.30 1024.19 1023.83 1023.42 1023.46 1023.46 1023.22 1023.12 1023.20 1023.17 1023.41 1023.56 1023.67 1023.13 1022.59 1022.10 1021.43 1020.57 1020.07 1019.43 1018.96 1017.96 1017.13 1015.13 1015.50 1015.14 1014.99 1014.99 1015.01 1015.09 1014.99 1014.60
1023.34 1023.78 1023.81 1024.40 1024.69 1025.08 1024.83 1024.60 1024.57 1024.90 1024.66 1024.53 1024.65 1024.56 1024.20 1023.87 1023.68 1023.51 1023.68 1023.57 1023.58 1023.56 1023.52 1023.82 1024.17 1024.34 1023.76 1023.46 1022.79 1022.00 1020.52 1019.76 1018.85 1018.32 1017.61 1016.67 1014.67 1014.97 1014.92 1014.88 1014.80 1014.62 1014.44 1014.17 1014.17
Wind_Speed
12 12 12 13 15 15 16 16 16 15 13 14 15 18 12 14 8 2 10 6 4 8 9 7 3 6 4 3 2 2 6 9 9 8 4 8 10 4 2 6 3 5 1 4 18
12 13 13 13 14 15 16 16 16 15 13 12 13 12 19 9 5 4 8 14 9 4 3 9 8 10 2 3 4 6 7 10 4 6 5 9 8 10 7 7 7 7 5 8 15
11 12 13 13 14 15 15 16 17 17 17 13 12 15 15 4 6 3 5 11 3 5 5 3 3 2 3 3 6 5 7 4 4 4 4 8 7 7 6 8 9 12 12 13 16
10 11 12 13 14 15 16 16 17 18 19 17 8 14 3 3 4 4 3 13 3 7 6 3 1 1 3 7 4 5 5 2 2 3 4 7 5 7 11 2 1 4 12 16 18
10 11 13 15 15 15 17 17 17 17 18 17 1 7 1 2 2 2 3 7 6 4 7 2 2 3 8 5 4 6 3 4 1 2 2 5 6 4 10 3 1 7 13 15 16
10 12 13 15 17 16 17 19 18 18 17 13 2 6 5 5 0 6 4 6 6 0 6 0 1 4 8 5 7 1 3 3 2 2 1 4 3 2 6 6 4 8 12 13 16
9 11 12 14 17 18 17 19 19 17 15 10 2 2 2 5 2 9 5 2 8 4 4 0 8 4 5 3 1 1 6 2 4 3 2 2 4 7 2 5 7 8 9 11 14
8 10 12 14 16 18 20 20 19 16 11 4 2 1 3 4 8 7 2 1 9 7 2 4 7 6 5 2 1 3 2 6 4 4 1 5 10 7 4 6 10 9 9 10 13
8 10 13 14 16 19 22 21 16 7 6 5 1 2 3 5 3 5 2 2 5 6 7 4 5 4 3 4 4 1 5 8 2 3 2 7 6 3 1 6 8 8 9 9 10
8 10 13 15 17 19 21 16 5 2 2 1 0 1 1 4 4 5 2 1 3 7 6 8 3 6 2 7 8 5 6 5 11 4 3 7 12 2 3 4 9 9 8 9 10
7 8 12 14 15 18 12 3 5 1 6 4 7 4 4 9 2 3 2 1 1 4 6 4 6 8 10 5 3 2 3 6 0 2 4 10 12 11 4 5 8 9 10 10 10
7 8 11 13 14 12 6 5 4 3 6 4 5 6 5 5 3 4 3 2 1 5 5 2 10 6 4 4 2 2 1 1 0 2 2 2 14 12 8 8 10 10 10 11 7
6 8 10 13 9 3 4 5 7 2 3 5 3 4 3 5 3 5 4 0 3 7 11 5 3 12 12 7 7 3 2 1 2 1 2 2 9 10 5 8 10 12 12 10 10
6 7 9 14 0 3 2 7 5 3 1 9 5 4 3 3 1 2 4 2 2 5 6 1 2 11 12 12 7 3 2 3 3 3 4 2 6 4 3 9 8 12 12 13 11
5 5 6 9 2 2 6 8 5 3 2 12 5 4 4 4 3 4 4 2 2 4 3 3 5 7 5 4 9 5 3 1 1 2 1 4 6 3 1 5 7 4 4 6 6
3 3 3 2 1 3 8 6 2 3 4 5 6 7 5 2 2 1 4 3 1 3 2 2 1 2 1 2 3 11 5 3 2 1 5 2 5 7 4 3 1 1 3 4 3
1 2 3 1 2 8 5 1 1 3 2 6 4 6 5 5 1 2 2 0 3 5 4 2 2 1 2 8 3 6 7 3 4 5 6 3 4 10 11 6 4 3 5 2 0
4 4 4 2 5 5 1 3 3 1 3 4 3 3 4 7 4 2 5 1 1 2 4 6 5 5 3 3 6 9 12 5 6 4 2 3 7 2 3 4 4 5 6 3 4
5 2 2 5 6 2 2 4 2 4 1 4 5 3 4 2 3 4 3 3 4 6 2 4 3 1 1 1 2 6 8 7 3 2 2 4 5 10 10 3 3 3 2 6 4
2 1 2 8 5 2 3 3 2 3 1 2 3 3 5 6 3 6 4 5 6 5 2 1 3 0 0 1 4 5 12 6 4 5 6 5 5 8 6 6 8 5 5 6 4
3 1 2 5 2 4 2 2 3 4 4 0 2 2 3 4 3 3 7 2 3 5 2 2 4 1 3 3 6 5 5 4 5 2 3 3 4 4 3 2 5 8 6 5 6
2 2 2 3 3 1 3 5 2 2 2 2 0 1 1 4 4 4 4 4 8 6 2 7 2 3 2 3 6 1 0 6 4 4 3 2 7 4 5 3 5 8 6 4 5
3 2 1 2 2 2 1 1 2 1 1 2 3 3 0 2 2 5 4 3 3 3 0 0 1 3 4 0 2 4 8 7 3 1 10 5 4 2 4 5 4 5 5 5 6
3 3 0 2 0 5 4 2 2 1 2 3 1 1 2 2 2 1 3 2 2 2 3 2 2 3 3 3 2 1 1 1 12 7 8 18 17 13 16 16 14 6 3 4 5
1 2 1 4 4 4 5 6 3 3 1 2 2 6 4 2 2 2 0 2 1 4 1 2 1 2 4 3 3 5 7 5 7 12 8 11 17 15 15 12 13 10 3 5 7
5 4 1 3 3 7 7 6 8 3 4 3 4 2 6 4 3 4 1 1 1 2 1 2 1 1 3 3 7 7 11 12 14 13 16 17 26 13 16 16 12 11 7 10 12
2 2 1 5 5 7 5 6 10 7 7 4 6 2 2 8 8 5 5 4 2 1 0 2 4 2 3 5 5 5 9 13 8 9 10 14 23 11 13 11 13 11 11 13 11
Wind_Direction
12 4 358 354 353 350 350 351 343 335 318 318 321 329 314 288 293 259 264 262 287 337 334 330 358 344 247 240 208 242 221 224 210 190 164 152 188 155 122 153 191 178 304 74 137
9 4 355 355 348 346 345 345 342 336 317 300 313 327 313 271 285 268 273 281 289 9 360 13 358 339 291 227 188 225 222 220 231 188 175 175 198 162 181 171 184 191 127 130 149
5 3 354 351 352 346 343 340 336 334 333 301 302 321 302 190 263 239 360 329 290 107 34 316 340 302 329 257 189 173 232 218 204 193 152 165 197 174 195 200 203 199 172 163 165
4 359 357 349 353 350 342 339 334 333 333 332 320 332 68 197 260 51 358 310 13 115 62 308 20 314 251 247 183 205 227 208 144 179 168 164 164 192 215 102 327 166 164 164 177
357 359 354 347 349 352 340 338 333 331 335 334 311 42 228 161 272 70 164 318 328 149 122 164 198 239 241 259 193 225 181 178 137 208 218 145 181 229 216 185 102 159 157 171 182
359 356 352 343 338 341 339 333 330 328 332 330 269 148 114 216 205 347 358 154 330 291 106 244 53 311 282 252 227 248 170 134 173 200 199 198 149 202 203 164 147 174 175 177 185
360 352 346 340 333 332 333 324 324 323 321 325 99 318 192 240 354 328 301 166 141 325 113 263 287 269 296 251 312 174 171 137 192 193 219 240 179 211 116 189 186 184 185 180 188
346 344 341 339 335 330 325 318 318 312 308 326 115 208 324 292 315 305 297 229 132 157 147 175 278 278 260 306 89 175 181 191 145 183 172 231 222 193 148 198 203 194 190 189 194
360 346 335 337 334 328 320 317 313 306 344 149 213 304 46 286 345 325 283 125 155 181 178 133 296 285 258 213 175 164 205 206 182 213 185 223 236 136 172 194 214 206 199 198 197
2 345 333 334 334 331 321 322 334 41 343 210 164 245 32 334 289 307 286 132 229 152 159 149 136 278 250 217 213 171 203 212 213 160 221 212 241 171 192 240 221 215 213 207 214
359 342 332 331 337 337 337 359 2 65 20 6 311 275 322 326 219 343 5 137 284 150 181 159 174 217 232 241 1 293 227 217 146 37 219 233 256 244 207 249 237 232 223 227 221
352 344 336 332 335 347 357 57 29 332 324 335 292 282 278 309 321 50 315 172 88 182 116 143 214 151 34 284 315 45 236 191 21 11 225 288 264 258 242 248 237 239 243 241 226
342 340 337 332 330 59 46 47 312 243 285 313 327 321 358 311 12 357 321 342 115 137 192 193 67 168 175 224 231 226 270 224 356 92 68 305 270 246 228 249 254 248 246 257 250
327 339 343 336 11 348 87 342 313 255 313 5 359 14 321 307 58 356 352 346 118 161 168 207 46 165 173 198 196 253 269 245 148 204 252 319 262 236 240 255 246 252 251 252 248
304 335 4 20 337 34 333 329 313 216 106 346 342 338 325 345 335 49 344 268 110 121 198 124 164 163 177 202 195 194 12 105 124 147 263 196 261 214 22 258 240 235 270 287 283
301 346 7 41 311 357 324 315 264 250 47 356 354 355 337 4 351 71 13 6 60 98 43 57 4 191 329 44 145 137 93 50 44 66 252 194 266 239 205 235 82 346 335 332 336
132 65 40 31 360 332 322 2 298 61 322 344 344 336 347 335 350 102 63 336 150 151 191 149 144 224 177 113 159 109 156 204 222 210 253 55 245 290 287 278 288 291 319 348 4
100 80 28 37 318 332 2 57 67 336 249 337 324 336 49 360 2 317 150 108 109 49 167 199 179 191 170 204 175 154 194 191 205 213 345 73 242 222 236 259 267 280 291 218 193
105 28 43 352 342 341 52 66 150 194 332 344 311 52 26 58 15 333 197 167 203 179 301 189 228 294 288 350 183 162 206 199 45 94 278 246 254 260 293 24 3 313 256 222 211
88 73 25 330 335 48 71 113 191 212 263 339 55 14 14 358 16 27 20 7 343 213 155 235 216 97 308 188 78 199 143 125 180 197 228 226 258 249 265 360 341 317 235 225 210
68 97 334 337 312 47 99 162 241 244 244 321 131 337 23 355 10 45 17 36 4 329 79 181 278 126 197 187 168 147 175 103 127 233 267 281 229 209 245 47 330 324 299 253 222
108 95 353 329 60 23 134 179 252 258 178 236 157 81 333 353 354 36 38 348 343 345 74 1 284 183 182 24 323 277 75 190 199 187 255 293 255 296 321 10 347 330 304 266 253
96 95 77 336 148 126 105 256 273 275 218 190 191 209 217 43 44 7 18 325 355 360 51 44 352 183 154 227 10 211 211 226 237 62 224 247 242 66 15 36 40 353 325 282 248
123 129 334 75 93 138 156 182 244 270 274 298 268 134 179 50 92 56 7 326 331 317 200 7 68 49 32 6 12 179 64 260 227 236 255 243 268 272 303 320 325 334 282 260 258
46 158 214 166 201 173 177 162 164 215 210 311 220 225 184 197 160 150 58 338 131 321 51 312 117 274 225 248 241 247 253 252 249 240 235 265 270 268 281 283 285 295 248 232 227
144 161 92 151 138 165 189 211 205 189 187 186 218 186 213 226 226 172 352 334 2 49 70 3 121 7 280 278 250 259 254 250 247 249 254 260 268 276 281 279 274 266 254 247 237
144 73 157 155 153 172 202 201 207 184 214 185 198 175 254 248 242 289 285 258 258 312 222 121 142 161 252 2 345 296 254 232 250 234 258 264 268 295 297 274 260 257 246 243 242